• In France
  • List of Countries
  • For 7 days
  • Water Temperature
  • Satellite Maps
  • Weather Map
  • Weather Widgets
  • user-avatar
    Login

    Hourly Weather Heredia

    Today, 25 February, Sunday

    Time Temperature Precipitation Wind Pressure Humidity
    00:00 +16°C° 0 mm 1 mps 664 mmHg 89%
    01:00 +16°C° 0 mm 1 mps 663 mmHg 88%
    02:00 +15°C° 0 mm 1 mps 663 mmHg 87%
    03:00 +15°C° 0 mm 1 mps 663 mmHg 86%
    04:00 +15°C° 0 mm 1 mps 663 mmHg 86%
    05:00 +15°C° 0 mm 1 mps 663 mmHg 85%
    06:00 +15°C° 0 mm 1 mps 663 mmHg 84%
    07:00 +18°C° 0 mm 1 mps 664 mmHg 75%
    08:00 +21°C° 0 mm 1 mps 665 mmHg 65%
    09:00 +24°C° 0 mm 1 mps 666 mmHg 55%
    10:00 +25°C° 0.1 mm 2 mps 666 mmHg 53%
    11:00 +26°C° 0.1 mm 2 mps 666 mmHg 51%
    12:00 +27°C° 0.1 mm 2 mps 666 mmHg 50%
    13:00 +25°C° 0.7 mm 2 mps 666 mmHg 55%
    14:00 +24°C° 0.7 mm 2 mps 665 mmHg 60%
    15:00 +23°C° 0.7 mm 2 mps 664 mmHg 64%
    16:00 +22°C° 0.5 mm 1 mps 664 mmHg 71%
    17:00 +20°C° 0.5 mm 1 mps 664 mmHg 78%
    18:00 +19°C° 0.5 mm 1 mps 663 mmHg 85%
    19:00 +18°C° 0 mm 1 mps 664 mmHg 86%
    20:00 +18°C° 0 mm 1 mps 664 mmHg 88%
    21:00 +16°C° 0 mm 1 mps 664 mmHg 89%
    22:00 +16°C° 0 mm 1 mps 664 mmHg 88%
    23:00 +16°C° 0 mm 1 mps 664 mmHg 88%

    Tomorrow, 26 February, Monday

    Time Temperature Precipitation Wind Pressure Humidity
    00:00 +16°C° 0 mm 1 mps 664 mmHg 87%
    01:00 +15°C° 0 mm 1 mps 664 mmHg 86%
    02:00 +15°C° 0 mm 1 mps 663 mmHg 85%
    03:00 +15°C° 0 mm 1 mps 663 mmHg 84%
    04:00 +15°C° 0 mm 1 mps 663 mmHg 84%
    05:00 +15°C° 0 mm 1 mps 663 mmHg 83%
    06:00 +15°C° 0 mm 1 mps 664 mmHg 83%
    07:00 +19°C° 0 mm 1 mps 665 mmHg 74%
    08:00 +21°C° 0 mm 1 mps 666 mmHg 65%
    09:00 +24°C° 0 mm 2 mps 667 mmHg 56%
    10:00 +25°C° 0 mm 2 mps 667 mmHg 53%
    11:00 +26°C° 0 mm 2 mps 667 mmHg 51%
    12:00 +27°C° 0 mm 2 mps 667 mmHg 48%
    13:00 +26°C° 0.2 mm 2 mps 666 mmHg 54%
    14:00 +24°C° 0.2 mm 2 mps 665 mmHg 60%
    15:00 +23°C° 0.2 mm 2 mps 664 mmHg 65%
    16:00 +22°C° 0.1 mm 1 mps 664 mmHg 72%
    17:00 +20°C° 0.1 mm 1 mps 664 mmHg 79%
    18:00 +19°C° 0.1 mm 1 mps 664 mmHg 86%
    19:00 +19°C° 0 mm 1 mps 664 mmHg 87%
    20:00 +18°C° 0 mm 1 mps 664 mmHg 88%
    21:00 +18°C° 0 mm 1 mps 665 mmHg 90%
    22:00 +16°C° 0 mm 1 mps 664 mmHg 88%
    23:00 +16°C° 0 mm 1 mps 664 mmHg 86%

    Day after tomorrow, 27 February, Tuesday

    Time Temperature Precipitation Wind Pressure Humidity
    00:00 +16°C° 0 mm 1 mps 664 mmHg 85%
    01:00 +15°C° 0 mm 1 mps 663 mmHg 84%
    02:00 +15°C° 0 mm 1 mps 663 mmHg 83%
    03:00 +15°C° 0 mm 1 mps 663 mmHg 82%
    04:00 +15°C° 0 mm 1 mps 663 mmHg 82%
    05:00 +15°C° 0 mm 1 mps 663 mmHg 82%
    06:00 +15°C° 0 mm 1 mps 663 mmHg 82%
    07:00 +18°C° 0 mm 2 mps 664 mmHg 74%
    08:00 +20°C° 0 mm 2 mps 666 mmHg 66%
    09:00 +23°C° 0 mm 2 mps 667 mmHg 58%
    10:00 +24°C° 0 mm 2 mps 667 mmHg 56%
    11:00 +26°C° 0 mm 2 mps 666 mmHg 53%
    12:00 +27°C° 0 mm 2 mps 666 mmHg 50%
    13:00 +26°C° 0.1 mm 2 mps 665 mmHg 53%
    14:00 +25°C° 0.1 mm 2 mps 664 mmHg 56%
    15:00 +24°C° 0.1 mm 2 mps 663 mmHg 60%
    16:00 +21°C° 0.1 mm 2 mps 663 mmHg 67%
    17:00 +21°C° 0.1 mm 1 mps 663 mmHg 74%
    18:00 +19°C° 0.1 mm 1 mps 663 mmHg 82%
    19:00 +18°C° 0 mm 1 mps 663 mmHg 83%
    20:00 +18°C° 0 mm 1 mps 663 mmHg 84%
    21:00 +16°C° 0 mm 1 mps 664 mmHg 84%
    22:00 +16°C° 0 mm 1 mps 664 mmHg 83%
    23:00 +16°C° 0 mm 1 mps 663 mmHg 82%

    28 February, Wednesday

    Time Temperature Precipitation Wind Pressure Humidity
    00:00 +15°C° 0 mm 1 mps 663 mmHg 81%
    01:00 +15°C° 0 mm 1 mps 663 mmHg 80%
    02:00 +15°C° 0 mm 1 mps 662 mmHg 80%
    03:00 +15°C° 0 mm 1 mps 662 mmHg 79%
    04:00 +15°C° 0 mm 1 mps 662 mmHg 79%
    05:00 +15°C° 0 mm 1 mps 662 mmHg 78%
    06:00 +15°C° 0 mm 1 mps 663 mmHg 77%
    07:00 +18°C° 0 mm 1 mps 664 mmHg 67%
    08:00 +21°C° 0 mm 1 mps 665 mmHg 58%
    09:00 +24°C° 0 mm 2 mps 666 mmHg 48%
    10:00 +25°C° 0 mm 2 mps 666 mmHg 46%
    11:00 +27°C° 0 mm 2 mps 666 mmHg 44%
    12:00 +28°C° 0 mm 2 mps 666 mmHg 42%
    13:00 +26°C° 0.1 mm 2 mps 665 mmHg 48%
    14:00 +25°C° 0.1 mm 2 mps 664 mmHg 54%
    15:00 +24°C° 0.1 mm 2 mps 663 mmHg 60%
    16:00 +22°C° 0.1 mm 1 mps 663 mmHg 68%
    17:00 +21°C° 0.1 mm 1 mps 663 mmHg 75%
    18:00 +20°C° 0.1 mm 1 mps 662 mmHg 82%
    19:00 +19°C° 0 mm 1 mps 663 mmHg 85%
    20:00 +18°C° 0 mm 1 mps 663 mmHg 87%
    21:00 +18°C° 0 mm 1 mps 664 mmHg 90%
    22:00 +18°C° 0 mm 1 mps 663 mmHg 90%
    23:00 +16°C° 0 mm 1 mps 663 mmHg 89%

    1 March, Thursday

    Time Temperature Precipitation Wind Pressure Humidity
    00:00 +16°C° 0 mm 1 mps 663 mmHg 89%
    01:00 +16°C° 0 mm 1 mps 663 mmHg 89%
    02:00 +16°C° 0 mm 1 mps 662 mmHg 88%
    03:00 +16°C° 0 mm 1 mps 662 mmHg 88%
    04:00 +16°C° 0 mm 1 mps 662 mmHg 87%
    05:00 +16°C° 0 mm 1 mps 662 mmHg 87%
    06:00 +15°C° 0 mm 1 mps 663 mmHg 87%
    07:00 +19°C° 0 mm 1 mps 664 mmHg 77%
    08:00 +21°C° 0 mm 1 mps 665 mmHg 68%
    09:00 +24°C° 0 mm 1 mps 666 mmHg 58%
    10:00 +25°C° 0 mm 2 mps 666 mmHg 57%
    11:00 +25°C° 0 mm 2 mps 665 mmHg 55%
    12:00 +26°C° 0 mm 2 mps 665 mmHg 54%
    13:00 +25°C° 0.1 mm 2 mps 664 mmHg 58%
    14:00 +24°C° 0.1 mm 2 mps 664 mmHg 63%
    15:00 +23°C° 0.1 mm 2 mps 663 mmHg 67%
    16:00 +22°C° 0.1 mm 1 mps 663 mmHg 73%
    17:00 +21°C° 0.1 mm 1 mps 663 mmHg 79%
    18:00 +19°C° 0.1 mm 1 mps 663 mmHg 85%
    19:00 +19°C° 0 mm 1 mps 663 mmHg 87%
    20:00 +19°C° 0 mm 1 mps 663 mmHg 88%
    21:00 +18°C° 0 mm 1 mps 664 mmHg 90%
    22:00 +18°C° 0 mm 1 mps 663 mmHg 90%
    23:00 +18°C° 0 mm 1 mps 663 mmHg 89%

    2 March, Friday

    Time Temperature Precipitation Wind Pressure Humidity
    00:00 +16°C° 0 mm 1 mps 663 mmHg 89%
    01:00 +16°C° 0 mm 1 mps 663 mmHg 88%
    02:00 +16°C° 0 mm 1 mps 662 mmHg 87%
    03:00 +16°C° 0 mm 1 mps 662 mmHg 86%
    04:00 +15°C° 0 mm 1 mps 662 mmHg 85%
    05:00 +15°C° 0 mm 1 mps 663 mmHg 84%
    06:00 +15°C° 0 mm 1 mps 663 mmHg 83%
    07:00 +19°C° 0 mm 1 mps 664 mmHg 73%
    08:00 +21°C° 0 mm 1 mps 665 mmHg 63%
    09:00 +24°C° 0 mm 2 mps 666 mmHg 53%
    10:00 +25°C° 0 mm 2 mps 666 mmHg 51%
    11:00 +26°C° 0 mm 2 mps 665 mmHg 48%
    12:00 +27°C° 0 mm 2 mps 665 mmHg 45%
    13:00 +26°C° 0.1 mm 2 mps 664 mmHg 52%
    14:00 +24°C° 0.1 mm 2 mps 663 mmHg 58%
    15:00 +23°C° 0.1 mm 2 mps 663 mmHg 65%
    16:00 +22°C° 0 mm 1 mps 662 mmHg 71%
    17:00 +21°C° 0 mm 1 mps 662 mmHg 77%
    18:00 +19°C° 0 mm 1 mps 662 mmHg 83%
    19:00 +19°C° 0 mm 1 mps 662 mmHg 85%
    20:00 +18°C° 0 mm 1 mps 663 mmHg 87%
    21:00 +18°C° 0 mm 1 mps 663 mmHg 89%
    22:00 +18°C° 0 mm 1 mps 663 mmHg 88%
    23:00 +16°C° 0 mm 1 mps 663 mmHg 88%
    Show more